Brookings, OR

8:27 AM PDT on August 22, 2017 (GMT -0700)
Brookings State

Weather History for KBOK - April, 2013

Change the Weather History Date:

Tuesday, April 30, 2013

  Actual Average Record
Temperature  
Mean Temperature 53 °F -  
Max Temperature 61 °F 61 °F 86 °F (2015)
Min Temperature 45 °F 44 °F 34 °F (1964)
Degree Days  
Heating Degree Days 12    
Growing Degree Days 3 (Base 50)    
Moisture  
Dew Point 31 °F    
Average Humidity 43    
Maximum Humidity 60    
Minimum Humidity 20    
Precipitation  
Precipitation 0.00 in - - ()
Sea Level Pressure  
Sea Level Pressure 30.18 in    
Wind  
Wind Speed 9 mph (NNW)    
Max Wind Speed 17 mph    
Max Gust Speed -    
Visibility 10 miles    
Events      
Averages and records for this station are not official NWS values.
T = Trace of Precipitation, MM = Missing Value Source: NWS Daily Summary

Daily Weather History Graph

Daily Weather History Graph

Search for Another Location

Airport or City:

Trip Planner

Search our weather history database for the weather conditions in past years. The results will help you decide how hot, cold, wet, or windy it might be!

Date:

Astronomy

Apr. 30, 2013 Rise Set
Actual Time 6:13 AM PDT 8:15 PM PDT
Civil Twilight 5:43 AM PDT 8:45 PM PDT
Nautical Twilight 5:06 AM PDT 9:23 PM PDT
Astronomical Twilight 4:25 AM PDT 10:04 PM PDT
Moon 12:44 AM PDT (4/30) 10:48 AM PDT (4/30)
Length of Visible Light 15h 02m
Length of Day
14h 01m
Waning Gibbous, 69% of the Moon is Illuminated
Apr 30
Waning Gibbous
May 2
Last Quarter
May 9
New
May 17
First Quarter
May 24
Full

Hourly Weather History & Observations

Time (PDT) Temp. Windchill Dew Point Humidity Pressure Visibility Wind Dir Wind Speed Gust Speed Precip Events Conditions
12:56 AM 52.0 °F - 34.9 °F 52% 30.10 in 10.0 mi NNE 8.1 mph - N/A   Clear
1:56 AM 52.0 °F - 34.9 °F 52% 30.12 in 10.0 mi NNE 8.1 mph - N/A   Clear
2:56 AM 50.9 °F - 34.9 °F 54% 30.12 in 10.0 mi North 8.1 mph - N/A   Clear
3:56 AM 47.8 °F - 32.9 °F 56% 30.13 in 10.0 mi North 8.1 mph - N/A   Clear
4:56 AM 45.0 °F 40.6 °F 32.0 °F 60% 30.14 in 10.0 mi NW 8.1 mph - N/A   Clear
5:56 AM 45.0 °F 42.6 °F 31.1 °F 58% 30.15 in 10.0 mi NNW 4.6 mph - N/A   Clear
6:56 AM 46.9 °F - 27.1 °F 46% 30.16 in 10.0 mi NNE 8.1 mph - N/A   Clear
7:56 AM 48.9 °F - 24.1 °F 38% 30.18 in 10.0 mi North 9.2 mph - N/A   Clear
8:56 AM 52.0 °F - 21.0 °F 30% 30.19 in 10.0 mi North 8.1 mph - N/A   Clear
9:56 AM 54.9 °F - 19.0 °F 25% 30.19 in 10.0 mi North 9.2 mph - N/A   Clear
10:56 AM 59.0 °F - 18.1 °F 20% 30.20 in 10.0 mi Variable 4.6 mph - N/A   Clear
11:56 AM 57.9 °F - 32.0 °F 37% 30.20 in 10.0 mi NW 17.3 mph - N/A   Clear
12:56 PM 55.9 °F - 36.0 °F 47% 30.21 in 10.0 mi NW 16.1 mph - N/A   Clear
1:56 PM 59.9 °F - 36.0 °F 41% 30.20 in 10.0 mi NW 13.8 mph - N/A   Clear
2:56 PM 61.9 °F - 37.9 °F 41% 30.19 in 10.0 mi NW 11.5 mph - N/A   Clear
3:56 PM 61.9 °F - 38.8 °F 43% 30.19 in 10.0 mi NNW 10.4 mph - N/A   Clear
4:56 PM 61.0 °F - 38.8 °F 44% 30.18 in 10.0 mi NNW 10.4 mph - N/A   Clear
5:56 PM 59.9 °F - 38.8 °F 46% 30.18 in 10.0 mi NNW 9.2 mph - N/A   Clear
6:56 PM 59.0 °F - 38.8 °F 47% 30.19 in 10.0 mi NNW 8.1 mph - N/A   Clear
7:56 PM 54.9 °F - 38.8 °F 55% 30.20 in 10.0 mi Variable 4.6 mph - N/A   Clear
8:56 PM 52.0 °F - 36.0 °F 54% 30.22 in 10.0 mi NNW 5.8 mph - N/A   Clear
10:56 PM 56.8 °F - 17.1 °F 21% 30.25 in 10.0 mi NNE 9.2 mph - N/A   Clear
11:56 PM 55.9 °F - 20.1 °F 25% 30.25 in 10.0 mi NNE 8.1 mph - N/A   Clear